Hourly Data Report for September 05, 2017

All times are specified in Local Standard Time (LST). Add 1 hour to adjust for Daylight Saving Time where and when it is observed.

COMOX A
BRITISH COLUMBIA

49°43'00.000" N
124°54'00.000" W
25.60 m
1021830
71893
YQQ

Download Data

Hourly Data (September 2017)
Hourly Data Report for September 5, 2017
Temp Definition
°C
Dew Point Temp Definition
°C
Rel Hum Definition
%
Wind Dir Definition
10's deg

Wind Spd Definition
km/h
Visibility Definition
km
Stn Press Definition
kPa
Hmdx Definition


Wind Chill Definition


Weather Definition


TIME
00:00 20.7 13.5 63 33 6 32.2 101.03     Mostly Cloudy
01:00 22.4 13.7 58 32 7 32.2 101.00 26   Cloudy
02:00 22.0 13.6 59   0 32.2 101.00 25   Cloudy
03:00 20.2 13.5 65   0 32.2 100.98     Cloudy
04:00 20.1 13.5 66 21 4 32.2 100.99     Cloudy
05:00 19.1 13.4 70 36 4 32.2 100.97     Cloudy
06:00 19.3 13.5 69   0 32.2 101.01     Cloudy
07:00 20.0 13.7 67   0 32.2 101.03     Cloudy
08:00 21.1 13.5 62 34 6 32.2 101.04     Cloudy
09:00 21.8 14.2 62 34 7 32.2 101.06 25   Cloudy
10:00 23.7 13.7 53 34 9 32.2 101.07 27   Cloudy
11:00 25.6 13.1 46 36 6 32.2 101.07 28   Cloudy
12:00 25.4 12.3 44 3 7 32.2 101.06 28   Cloudy
13:00 25.9 14.3 49 7 6 32.2 101.05 29   Cloudy
14:00 26.2 14.2 48 7 9 32.2 101.03 30   Cloudy
15:00 24.5 15.4 57 9 7 32.2 100.99 29   Cloudy
16:00 25.2 15.3 54   0 32.2 100.96 29   Cloudy
17:00 26.0 14.8 50   0 32.2 100.93 30   Mostly Cloudy
18:00 23.4 14.4 57 12 4 32.2 100.92 27   Mostly Cloudy
19:00 22.7 14.2 59 22 6 32.2 100.94 26   Mostly Cloudy
20:00 22.9 13.8 56   0 32.2 101.00 26   Cloudy
21:00 21.4 14.4 64 31 6 32.2 101.02 25   Mostly Cloudy
22:00 20.8 14.2 66 35 7 32.2 101.04     Cloudy
23:00 21.5 14.2 63   0 32.2 101.05 25   Mostly Cloudy

Notes on Data Quality.

Legend

  • E = Estimated
  • M = Missing
  • NA = Not Available
  • ‡ = Partner data that is not subject to review by the National Climate Archives
Date modified: